Weather History for Bangor, ME

Change the Weather History Date:

Sunday, September 15, 2013

  Actual Average Record
Temperature  
Mean Temperature 57 °F 59 °F  
Max Temperature 68 °F 70 °F 97 °F (1939)
Min Temperature 46 °F 48 °F 34 °F (1963)
Degree Days  
Heating Degree Days 8 7  
Month to date heating degree days 66 69  
Since 1 July heating degree days 98 132  
Cooling Degree Days 0 1  
Month to date cooling degree days 33 19  
Year to date cooling degree days 355 313  
Growing Degree Days 6 (Base 50)    
Moisture  
Dew Point 48 °F    
Average Humidity 69    
Maximum Humidity 93    
Minimum Humidity 45    
Precipitation  
Precipitation 0.00 in 0.14 in 1.98 in (1944)
Month to date precipitation 6.66 1.72  
Year to date precipitation 31.84 27.97  
Snow  
Snow 0.00 in 0.00 in 0.00 in (2002)
Month to date snowfall 0.0 0.0  
Since 1 July snowfall 0.0 0.0  
Since 1 September snowfall 0.0 0.0  
Snow Depth 0.00 in    
Sea Level Pressure  
Sea Level Pressure 30.04 in    
Wind  
Wind Speed 5 mph (SW)    
Max Wind Speed 15 mph    
Max Gust Speed 22 mph    
Visibility 10 miles    
Events Fog    
T = Trace of Precipitation, MM = Missing Value Source: NWS Daily Summary

Daily Weather History Graph

Daily Weather History Graph

Search for Another Location

Airport:

Trip Planner

Search our weather history database for the weather conditions in past years. The results will help you decide how hot, cold, wet, or windy it might be!

Date:

Astronomy

Sep. 15, 2013 Rise Set
Actual Time 6:14 AM EDT 6:45 PM EDT
Civil Twilight 5:44 AM EDT 7:14 PM EDT
Nautical Twilight 5:10 AM EDT 7:49 PM EDT
Astronomical Twilight 4:34 AM EDT 8:25 PM EDT
Moon 4:17 PM EDT (9/15) 1:39 AM EDT (9/15)
Length of Visible Light 13h 30m
Length of Day
12h 31m
Waxing Gibbous, 82% of the Moon is Illuminated
Sep 15
Waxing Gibbous
Sep 19
Full
Sep 26
Last Quarter
Oct 4
New
Oct 11
First Quarter

Hourly Weather History & Observations

Time (EDT) Temp. Dew Point Humidity Pressure Visibility Wind Dir Wind Speed Gust Speed Precip Events Conditions
12:53 AM 52.0 °F 48.0 °F 86% 30.01 in 10.0 mi West 4.6 mph - N/A   Clear
1:53 AM 50.0 °F 46.9 °F 89% 30.03 in 10.0 mi Calm Calm - N/A   Partly Cloudy
2:53 AM 48.0 °F 46.9 °F 96% 30.03 in 10.0 mi West 4.6 mph - N/A   Clear
3:53 AM 46.9 °F 45.0 °F 93% 30.03 in 10.0 mi Calm Calm - N/A   Clear
4:53 AM 48.0 °F 46.0 °F 93% 30.05 in 10.0 mi WSW 4.6 mph - N/A   Clear
5:53 AM 48.0 °F 45.0 °F 89% 30.06 in 10.0 mi Calm Calm - N/A Fog Patches of Fog
6:53 AM 48.0 °F 46.0 °F 93% 30.08 in 10.0 mi WSW 4.6 mph - N/A Fog Patches of Fog
7:53 AM 52.0 °F 48.0 °F 86% 30.09 in 10.0 mi WSW 3.5 mph - N/A Fog Patches of Fog
8:53 AM 57.0 °F 48.0 °F 72% 30.09 in 10.0 mi West 6.9 mph - N/A   Partly Cloudy
9:53 AM 60.1 °F 46.9 °F 62% 30.10 in 10.0 mi WSW 5.8 mph - N/A   Scattered Clouds
10:53 AM 62.1 °F 46.9 °F 58% 30.09 in 10.0 mi WSW 5.8 mph - N/A   Mostly Cloudy
11:53 AM 64.0 °F 45.0 °F 50% 30.07 in 10.0 mi WSW 9.2 mph - N/A   Mostly Cloudy
12:53 PM 64.9 °F 46.0 °F 50% 30.05 in 10.0 mi SSW 5.8 mph - N/A   Mostly Cloudy
1:53 PM 66.0 °F 45.0 °F 47% 30.04 in 10.0 mi WSW 13.8 mph 21.9 mph N/A   Mostly Cloudy
2:53 PM 66.9 °F 46.0 °F 47% 30.03 in 10.0 mi WSW 10.4 mph - N/A   Overcast
3:53 PM 66.9 °F 48.0 °F 51% 30.01 in 10.0 mi SSW 11.5 mph - N/A   Overcast
4:53 PM 66.0 °F 46.9 °F 50% 30.01 in 10.0 mi WSW 5.8 mph - N/A   Mostly Cloudy
5:53 PM 64.0 °F 48.9 °F 58% 30.00 in 10.0 mi SSW 4.6 mph - N/A   Mostly Cloudy
6:53 PM 61.0 °F 50.0 °F 67% 30.01 in 10.0 mi SW 4.6 mph - N/A   Mostly Cloudy
7:53 PM 57.0 °F 51.1 °F 81% 30.01 in 10.0 mi SSW 4.6 mph - N/A   Mostly Cloudy
8:53 PM 57.0 °F 51.1 °F 81% 30.01 in 10.0 mi SSW 6.9 mph - N/A   Mostly Cloudy
9:53 PM 55.9 °F 50.0 °F 80% 30.01 in 10.0 mi South 3.5 mph - N/A   Scattered Clouds
10:53 PM 54.0 °F 50.0 °F 86% 29.99 in 10.0 mi South 4.6 mph - N/A   Scattered Clouds
11:53 PM 54.0 °F 50.0 °F 86% 30.00 in 10.0 mi South 4.6 mph - N/A   Scattered Clouds